Location: Zagreb
(45.8000°N, 16.0000°E)
Time: 14:05:40
(UTC+02:00)

Vanguard 1 - All Passes

Search period start: 19 July 2024 00:00
Search period end: 29 July 2024 00:00
Orbit: 650 x 3826 km, 34.3° (Epoch: 15 July)

Date Brightness Start Highest point End Pass type
(mag) Time Alt. Az. Time Alt. Az. Time Alt. Az.
19 Jul - 02:25:08 10° S 02:40:41 26° SE 02:57:07 10° E visible
19 Jul - 04:42:54 10° SW 05:04:04 49° SSE 05:22:58 10° E visible
19 Jul - 07:06:25 10° WSW 07:29:02 59° S 07:45:01 10° ESE daylight
19 Jul - 09:33:08 10° W 09:52:25 45° SSW 10:04:25 10° SE daylight
19 Jul - 12:02:51 10° W 12:12:18 18° SW 12:19:17 10° SSW daylight
20 Jul - 02:43:07 10° SSW 03:00:11 32° SE 03:18:19 10° E visible
20 Jul - 05:02:25 10° SW 05:24:07 53° SSE 05:43:10 10° E daylight
20 Jul - 07:26:39 10° WSW 07:49:09 58° S 08:04:50 10° ESE daylight
20 Jul - 09:53:46 10° W 10:12:03 40° SSW 10:23:39 10° SSE daylight
20 Jul - 12:25:46 10° WSW 12:31:17 13° WSW 12:35:55 10° SW daylight
21 Jul - 00:50:37 10° SSE 00:58:21 13° ESE 01:06:42 10° ESE visible
21 Jul - 03:01:37 10° SSW 03:19:46 38° SE 03:39:07 10° E visible
21 Jul - 05:22:08 10° WSW 05:44:14 57° SSE 06:03:17 10° E daylight
21 Jul - 07:46:58 10° W 08:09:13 56° SSW 08:24:34 10° ESE daylight
21 Jul - 10:14:32 10° W 10:31:30 34° SW 10:42:38 10° SSE daylight
22 Jul - 01:05:51 10° SSE 01:17:27 19° SE 01:30:38 10° E visible
22 Jul - 03:20:31 10° SSW 03:39:30 44° SSE 03:59:41 10° E visible
22 Jul - 05:42:02 10° WSW 06:04:25 59° S 06:23:20 10° ESE daylight
22 Jul - 08:07:21 10° W 08:29:11 53° SSW 08:44:11 10° SE daylight
22 Jul - 10:35:32 10° W 10:50:49 28° SW 11:01:16 10° S daylight
23 Jul - 01:22:56 10° S 01:36:39 25° SE 01:52:46 10° E visible
23 Jul - 03:39:43 10° SW 03:59:21 49° SSE 04:20:05 10° E visible
23 Jul - 06:02:03 10° WSW 06:24:36 60° S 06:43:19 10° ESE daylight
23 Jul - 08:27:48 10° W 08:49:02 49° SSW 09:03:39 10° SE daylight
23 Jul - 10:56:57 10° W 11:09:58 22° SW 11:19:26 10° S daylight
24 Jul - 01:40:54 10° S 01:55:57 31° SE 02:14:07 10° E visible
24 Jul - 03:59:11 10° SW 04:19:19 54° SSE 04:40:22 10° E visible
24 Jul - 06:22:11 10° WSW 06:44:47 60° S 07:03:13 10° ESE daylight
24 Jul - 08:48:21 10° W 09:08:44 43° SSW 09:22:55 10° SE daylight
24 Jul - 11:19:09 10° W 11:28:59 17° SW 11:36:44 10° SSW daylight
24 Jul - 23:50:37 10° SE 23:54:59 11° ESE 23:59:41 10° ESE visible
25 Jul - 01:59:23 10° SSW 02:15:23 37° SE 02:35:02 10° E visible
25 Jul - 04:18:49 10° WSW 04:39:23 57° SSE 05:00:34 10° E visible
25 Jul - 06:42:24 10° W 07:04:55 58° SSW 07:23:01 10° ESE daylight
25 Jul - 09:09:01 10° W 09:28:17 38° SW 09:41:56 10° SSE daylight
25 Jul - 11:43:48 10° WSW 11:47:54 11° WSW 11:51:36 10° SW daylight
26 Jul - 00:04:41 10° SSE 00:13:56 17° SE 00:24:59 10° E visible
26 Jul - 02:18:14 10° SSW 02:34:58 43° SSE 02:55:43 10° E visible
26 Jul - 04:38:37 10° WSW 04:59:31 60° S 05:20:42 10° E visible
26 Jul - 07:02:41 10° W 07:24:57 55° SSW 07:42:41 10° SE daylight
26 Jul - 09:29:54 10° W 09:47:41 32° SW 10:00:38 10° SSE daylight
27 Jul - 00:21:35 10° S 00:32:58 22° SE 00:47:28 10° E visible
27 Jul - 02:37:25 10° SW 02:54:42 48° SSE 03:16:12 10° E visible
27 Jul - 04:58:33 10° WSW 05:19:43 61° S 05:40:46 10° ESE visible
27 Jul - 07:23:02 10° W 07:44:53 51° SSW 08:02:11 10° SE daylight
27 Jul - 09:51:08 10° W 10:06:55 26° SW 10:18:52 10° S daylight
28 Jul - 00:39:27 10° S 00:52:08 28° SE 01:09:00 10° E visible
28 Jul - 02:56:47 10° SW 03:14:34 53° SSE 03:36:35 10° E visible
28 Jul - 05:18:34 10° WSW 05:39:54 61° S 06:00:44 10° ESE daylight
28 Jul - 07:43:27 10° W 08:04:41 46° SSW 08:21:28 10° SE daylight
28 Jul - 10:13:00 10° W 10:26:00 20° SW 10:36:24 10° SSW daylight
